EW4609 Weather Reports


time (UTC)temp
C
wind
direction
speed
KPH
gust
KPH
rain 1hr
cm
rain 24hr
cm
rain mn
cm
humidity
%
barometer
mb
20260505230107 29 317 0.0 0.0 0.00 0.00 0.00 42 1004.0
20260505224550 30 321 0.0 0.0 0.00 0.00 0.00 41 1003.7
20260505223053 30 313 0.0 0.0 0.00 0.00 0.00 41 1003.6
20260505221546 31 309 0.0 0.0 0.00 0.00 0.00 40 1003.3
20260505220040 32 258 0.0 0.0 0.00 0.00 0.00 38 1003.0
20260505214548 32 260 0.0 0.0 0.00 0.00 0.00 39 1003.2
20260505213043 32 255 0.0 0.0 0.00 0.00 0.00 38 1003.2
20260505211521 32 259 0.0 0.0 0.00 0.00 0.00 38 1003.4
20260505210006 31 252 0.0 0.0 0.00 0.00 0.00 37 1003.6
20260505204600 31 254 0.0 0.0 0.00 0.00 0.00 36 1003.8
20260505203056 31 262 0.0 0.0 0.00 0.00 0.00 35 1004.0
20260505201557 31 261 0.0 0.0 0.00 0.00 0.00 33 1004.2
20260505200046 31 254 0.0 0.0 0.00 0.00 0.00 28 1004.4
20260505194543 30 252 0.0 0.0 0.00 0.00 0.00 24 1004.3
20260505193045 30 254 0.0 0.0 0.00 0.00 0.00 20 1004.5
20260505191538 29 251 0.0 0.0 0.00 0.00 0.00 14 1004.4
20260505190024 28 267 0.0 0.0 0.00 0.00 0.00 8 1004.5
20260505184507 28 263 0.0 0.0 0.00 0.00 0.00 4 1004.7
20260505183102 27 250 0.0 0.0 0.00 0.00 0.00 3 1004.8
20260505181541 27 243 0.0 0.0 0.00 0.00 0.00 1 1004.7
20260505180041 27 250 0.0 0.0 0.00 0.00 0.00 1 1004.9
20260505174520 27 225 0.0 0.0 0.00 0.00 0.00 1 1004.8
20260505173010 27 292 0.0 0.0 0.00 0.00 0.00 1 1004.9
20260505171551 26 253 0.0 0.0 0.00 0.00 0.00 1 1005.0
20260505170044 26 265 0.0 0.0 0.00 0.00 0.00 1 1004.9
20260505164533 26 236 0.0 0.0 0.00 0.00 0.00 1 1004.9
20260505163023 25 252 0.0 0.0 0.00 0.00 0.00 1 1004.9
20260505161501 25 255 0.0 0.0 0.00 0.00 0.00 1 1004.9
20260505153033 23 255 0.0 0.0 0.00 0.00 0.00 1 1004.6
20260505151510 23 265 0.0 0.0 0.00 0.00 0.00 1 1004.8
20260505140117 22 264 0.0 0.0 0.00 0.00 0.00 1 1004.8
20260505124533 21 259 0.0 0.0 0.00 0.00 0.00 1 1004.3
20260505123046 21 217 0.0 0.0 0.00 0.00 0.00 1 1004.1
20260505121512 20 272 0.0 0.0 0.00 0.00 0.00 1 1003.9
20260505120010 20 240 0.0 0.0 0.00 0.00 0.00 1 1003.6
20260505114508 20 228 0.0 0.0 0.00 0.00 0.00 1 1003.8
20260505113009 20 263 0.0 0.0 0.00 0.00 0.00 1 1003.5
20260505111515 20 227 0.0 0.0 0.00 0.00 0.00 1 1003.5
20260505101537 21 253 0.0 0.0 0.00 0.00 0.00 1 1003.8
20260505100031 21 270 0.0 0.0 0.00 0.00 0.00 1 1003.7
20260505094506 21 257 0.0 0.0 0.00 0.00 0.00 1 1003.6
20260505093002 21 258 0.0 0.0 0.00 0.00 0.00 1 1003.9
20260505091546 21 263 0.0 0.0 0.00 0.00 0.00 1 1004.0
20260505090048 21 294 0.0 0.0 0.00 0.00 0.00 1 1004.2
20260505084517 21 261 0.0 0.0 0.00 0.00 0.00 1 1004.1
20260505083011 21 237 0.0 0.0 0.00 0.00 0.00 1 1004.2
20260505081550 21 271 0.0 0.0 0.00 0.00 0.00 1 1004.2
20260505080051 21 238 0.0 0.0 0.00 0.00 0.00 1 1004.1
20260505074522 21 256 0.0 0.0 0.00 0.00 0.00 1 1004.3
20260505073019 21 250 0.0 0.0 0.00 0.00 0.00 1 1004.7
20260505071558 22 275 0.0 0.0 0.00 0.00 0.00 1 1005.0
20260505070055 22 261 0.0 0.0 0.00 0.00 0.00 1 1005.3
20260505064530 22 274 0.0 0.0 0.00 0.00 0.00 1 1005.5
20260505063026 22 253 0.0 0.0 0.00 0.00 0.00 1 1005.6
20260505061509 22 225 0.0 0.0 0.00 0.00 0.00 1 1005.6
20260505060100 23 237 0.0 0.0 0.00 0.00 0.00 1 1005.7
20260505054538 23 261 0.0 0.0 0.00 0.00 0.00 1 1005.5
20260505053035 23 221 0.0 0.0 0.00 0.00 0.00 1 1005.5
20260505051514 23 243 0.0 0.0 0.00 0.00 0.00 1 1005.6
20260505041538 23 184 0.0 0.0 0.00 0.00 0.00 1 1005.9
20260505040017 23 232 0.0 0.0 0.00 0.00 0.00 2 1006.0
20260505034555 23 196 0.0 0.0 0.00 0.00 0.00 3 1006.0
20260505033052 23 131 0.0 0.0 0.00 0.00 0.00 5 1005.9
20260505031543 23 163 0.0 0.0 0.00 0.00 0.00 7 1005.8
20260505030037 23 169 0.0 0.0 0.00 0.00 0.00 8 1006.0
20260505024517 23 220 0.0 0.0 0.00 0.00 0.00 10 1006.0
20260505023013 24 143 0.0 0.0 0.00 0.00 0.00 13 1005.9
20260505021553 24 126 0.0 0.0 0.00 0.00 0.00 15 1005.8
20260505020052 24 155 0.0 0.0 0.00 0.00 0.00 16 1005.8
20260505014542 24 130 0.0 0.0 0.00 0.00 0.00 18 1005.7
20260505013031 24 209 0.0 0.0 0.00 0.00 0.00 20 1005.8
20260505011521 25 153 0.0 0.0 0.00 0.00 0.00 22 1005.8
20260505010011 25 187 0.0 0.0 0.00 0.00 0.00 24 1005.8
20260505004553 25 209 0.0 0.0 0.00 0.00 0.00 26 1005.8
20260505003050 25 222 0.0 0.0 0.00 0.00 0.00 28 1005.9
20260505001532 25 193 0.0 0.0 0.00 0.00 0.00 29 1005.9
20260505000034 26 253 0.0 0.0 0.00 0.00 0.00 29 1006.1
20260504234513 25 229 0.0 0.0 0.00 0.00 0.00 30 1006.1
20260504233008 26 211 0.0 0.0 0.00 0.00 0.00 31 1006.4
20260504231503 26 182 0.0 0.0 0.00 0.00 0.00 32 1006.2